| time (UTC) | temp F | wind direction | speed knots | gust knots | rain 1hr in | rain 24hr in | rain mn in | humidity % | barometer mb |
| 20260505121734 | 68 | 200 | 1.7 | 1.7 | 0.00 | 0.00 | 0.00 | 85 | 1033.8 |
| 20260505120753 | 68 | 180 | 0.9 | 0.9 | 0.00 | 0.00 | 0.00 | 86 | 1033.7 |
| 20260505115754 | 68 | 202 | 1.7 | 1.7 | 0.00 | 0.00 | 0.00 | 84 | 1033.7 |
| 20260505114735 | 68 | 202 | 0.9 | 1.7 | 0.00 | 0.00 | 0.00 | 85 | 1033.5 |
| 20260505114652 | 68 | 195 | 0.9 | 2.6 | 0.00 | 0.00 | 0.00 | 85 | 1033.5 |
| 20260505113637 | 68 | 197 | 1.7 | 2.6 | 0.00 | 0.00 | 0.00 | 84 | 1033.6 |
| 20260505112653 | 68 | 202 | 1.7 | 2.6 | 0.00 | 0.00 | 0.00 | 85 | 1033.7 |
| 20260505111751 | 68 | 202 | 1.7 | 1.7 | 0.00 | 0.00 | 0.00 | 85 | 1033.5 |
| 20260505110738 | 68 | 202 | 1.7 | 2.6 | 0.00 | 0.00 | 0.00 | 85 | 1033.3 |
| 20260505100837 | 68 | 180 | 1.7 | 1.7 | 0.00 | 0.00 | 0.00 | 83 | 1033.4 |
| 20260505095936 | 68 | 198 | 1.7 | 3.5 | 0.00 | 0.00 | 0.00 | 83 | 1033.3 |
| 20260505093937 | 68 | 202 | 2.6 | 3.5 | 0.00 | 0.00 | 0.00 | 83 | 1033.6 |
| 20260505092936 | 68 | 202 | 1.7 | 3.5 | 0.00 | 0.00 | 0.00 | 82 | 1033.6 |
| 20260505091952 | 68 | 171 | 0.9 | 3.5 | 0.00 | 0.00 | 0.00 | 83 | 1033.6 |
| 20260505090938 | 68 | 204 | 1.7 | 3.5 | 0.00 | 0.00 | 0.00 | 81 | 1033.5 |
| 20260505084937 | 68 | 183 | 1.7 | 3.5 | 0.00 | 0.00 | 0.00 | 82 | 1033.9 |
| 20260505083936 | 68 | 204 | 0.9 | 3.5 | 0.00 | 0.00 | 0.00 | 81 | 1034.0 |
| 20260505082037 | 67 | 200 | 0.9 | 1.7 | 0.00 | 0.00 | 0.00 | 80 | 1034.3 |
| 20260505081937 | 67 | 202 | 1.7 | 2.6 | 0.00 | 0.00 | 0.00 | 80 | 1034.3 |
| 20260505080936 | 67 | 171 | 1.7 | 3.5 | 0.00 | 0.00 | 0.00 | 81 | 1034.4 |
| 20260505075936 | 67 | 197 | 1.7 | 2.6 | 0.00 | 0.00 | 0.00 | 81 | 1034.6 |
| 20260505075034 | 67 | 172 | 1.7 | 5.2 | 0.00 | 0.00 | 0.00 | 80 | 1034.5 |
| 20260505074036 | 67 | 166 | 0.9 | 1.7 | 0.00 | 0.00 | 0.00 | 80 | 1034.7 |
| 20260505073053 | 67 | 177 | 1.7 | 4.3 | 0.00 | 0.00 | 0.00 | 79 | 1034.5 |
| 20260505072137 | 67 | 168 | 0.0 | 1.7 | 0.00 | 0.00 | 0.00 | 79 | 1034.8 |
| 20260505070335 | 67 | 197 | 1.7 | 3.5 | 0.00 | 0.00 | 0.00 | 78 | 1034.9 |
| 20260505064435 | 68 | 189 | 0.9 | 1.7 | 0.00 | 0.00 | 0.00 | 78 | 1035.1 |
| 20260505064337 | 68 | 202 | 0.9 | 1.7 | 0.00 | 0.00 | 0.00 | 78 | 1035.2 |
| 20260505063434 | 68 | 204 | 1.7 | 3.5 | 0.00 | 0.00 | 0.00 | 78 | 1035.2 |
| 20260505062436 | 68 | 171 | 1.7 | 1.7 | 0.00 | 0.00 | 0.00 | 77 | 1035.4 |
| 20260505061436 | 68 | 201 | 0.9 | 1.7 | 0.00 | 0.00 | 0.00 | 76 | 1035.4 |
| 20260505061353 | 68 | 202 | 0.9 | 1.7 | 0.00 | 0.00 | 0.00 | 76 | 1035.5 |
| 20260505055534 | 68 | 180 | 0.9 | 2.6 | 0.00 | 0.00 | 0.00 | 76 | 1035.5 |
| 20260505054536 | 68 | 180 | 0.9 | 1.7 | 0.00 | 0.00 | 0.00 | 75 | 1035.5 |
| 20260505053537 | 69 | 202 | 0.9 | 1.7 | 0.00 | 0.00 | 0.00 | 75 | 1035.5 |
| 20260505053436 | 69 | 204 | 1.7 | 2.6 | 0.00 | 0.00 | 0.00 | 74 | 1035.5 |
| 20260505052436 | 69 | 180 | 0.9 | 1.7 | 0.00 | 0.00 | 0.00 | 74 | 1035.7 |
| 20260505052337 | 69 | 192 | 0.0 | 1.7 | 0.00 | 0.00 | 0.00 | 74 | 1035.8 |
| 20260505051338 | 69 | 180 | 0.9 | 1.7 | 0.00 | 0.00 | 0.00 | 73 | 1035.8 |
| 20260505050435 | 69 | 180 | 0.9 | 1.7 | 0.00 | 0.00 | 0.00 | 73 | 1035.8 |
| 20260505041424 | 69 | 223 | 0.9 | 1.7 | 0.00 | 0.00 | 0.00 | 71 | 1035.9 |
| 20260505041322 | 69 | 158 | 0.0 | 1.7 | 0.00 | 0.00 | 0.00 | 71 | 1036.0 |
| 20260505040324 | 69 | 202 | 0.9 | 2.6 | 0.00 | 0.00 | 0.00 | 70 | 1035.9 |
| 20260505034424 | 69 | 180 | 0.0 | 1.7 | 0.00 | 0.00 | 0.00 | 69 | 1035.9 |
| 20260505032423 | 69 | 202 | 0.9 | 0.9 | 0.00 | 0.00 | 0.00 | 66 | 1035.8 |
| 20260505031423 | 69 | 202 | 0.9 | 1.7 | 0.00 | 0.00 | 0.00 | 66 | 1036.0 |
| 20260505031338 | 69 | 173 | 0.9 | 2.6 | 0.00 | 0.00 | 0.00 | 65 | 1035.9 |
| 20260505030422 | 69 | 202 | 0.9 | 1.7 | 0.00 | 0.00 | 0.00 | 65 | 1036.0 |
| 20260505025422 | 70 | 180 | 0.9 | 1.7 | 0.00 | 0.00 | 0.00 | 64 | 1035.9 |
| 20260505022524 | 70 | 225 | 0.0 | 0.9 | 0.00 | 0.00 | 0.00 | 61 | 1035.7 |
| 20260505021621 | 71 | 157 | 0.0 | 0.0 | 0.00 | 0.00 | 0.00 | 59 | 1035.6 |
| 20260505020721 | 71 | 246 | 0.0 | 0.9 | 0.00 | 0.00 | 0.00 | 58 | 1035.5 |
| 20260505020641 | 71 | 270 | 0.0 | 0.0 | 0.00 | 0.00 | 0.00 | 58 | 1035.5 |
| 20260505015622 | 71 | 180 | 0.9 | 1.7 | 0.00 | 0.00 | 0.00 | 59 | 1035.4 |
| 20260505014622 | 72 | 157 | 0.0 | 1.7 | 0.00 | 0.00 | 0.00 | 57 | 1035.2 |
| 20260505014524 | 72 | 157 | 0.0 | 0.0 | 0.00 | 0.00 | 0.00 | 57 | 1035.3 |
| 20260505013542 | 72 | 157 | 0.0 | 0.0 | 0.00 | 0.00 | 0.00 | 57 | 1035.2 |
| 20260505012622 | 73 | 157 | 0.0 | 0.9 | 0.00 | 0.00 | 0.00 | 56 | 1035.1 |
| 20260505010640 | 74 | 157 | 0.9 | 0.9 | 0.00 | 0.00 | 0.00 | 55 | 1035.1 |
| 20260505010523 | 74 | 157 | 0.9 | 0.9 | 0.00 | 0.00 | 0.00 | 54 | 1035.2 |
| 20260505005521 | 74 | 188 | 0.9 | 1.7 | 0.00 | 0.00 | 0.00 | 54 | 1035.1 |
| 20260505005422 | 74 | 180 | 0.9 | 1.7 | 0.00 | 0.00 | 0.00 | 54 | 1035.0 |
| 20260505005324 | 74 | 180 | 0.9 | 1.7 | 0.00 | 0.00 | 0.00 | 54 | 1035.0 |
| 20260505004422 | 75 | 166 | 0.9 | 3.5 | 0.00 | 0.00 | 0.00 | 54 | 1035.1 |
| 20260505003423 | 75 | 202 | 0.9 | 1.7 | 0.00 | 0.00 | 0.00 | 53 | 1035.2 |
| 20260505002423 | 76 | 202 | 1.7 | 2.6 | 0.00 | 0.00 | 0.00 | 52 | 1035.4 |
| 20260505001521 | 76 | 187 | 0.9 | 2.6 | 0.00 | 0.00 | 0.00 | 51 | 1035.3 |
| 20260505000523 | 76 | 202 | 1.7 | 2.6 | 0.00 | 0.00 | 0.00 | 51 | 1035.3 |
| 20260504234524 | 77 | 196 | 1.7 | 3.5 | 0.00 | 0.00 | 0.00 | 50 | 1035.6 |
| 20260504233540 | 77 | 198 | 1.7 | 4.3 | 0.00 | 0.00 | 0.00 | 48 | 1035.7 |
| 20260504232623 | 77 | 195 | 1.7 | 4.3 | 0.00 | 0.00 | 0.00 | 49 | 1035.9 |
| 20260504232524 | 77 | 194 | 2.6 | 4.3 | 0.00 | 0.00 | 0.00 | 50 | 1035.9 |
| 20260504231522 | 77 | 211 | 1.7 | 2.6 | 0.00 | 0.00 | 0.00 | 48 | 1035.9 |
| 20260504230523 | 78 | 209 | 1.7 | 2.6 | 0.00 | 0.00 | 0.00 | 49 | 1035.9 |
| 20260504224637 | 78 | 158 | 2.6 | 5.2 | 0.00 | 0.00 | 0.00 | 49 | 1036.1 |
| 20260504223724 | 78 | 196 | 1.7 | 3.5 | 0.00 | 0.00 | 0.00 | 49 | 1036.3 |
| 20260504222821 | 78 | 223 | 0.9 | 1.7 | 0.00 | 0.00 | 0.00 | 47 | 1036.5 |
| 20260504222723 | 78 | 200 | 1.7 | 3.5 | 0.00 | 0.00 | 0.00 | 48 | 1036.4 |
| 20260504221723 | 78 | 206 | 2.6 | 4.3 | 0.00 | 0.00 | 0.00 | 46 | 1036.7 |
| 20260504220722 | 78 | 161 | 4.3 | 8.7 | 0.00 | 0.00 | 0.00 | 47 | 1036.5 |
| 20260504215722 | 78 | 209 | 2.6 | 3.5 | 0.00 | 0.00 | 0.00 | 46 | 1036.6 |
| 20260504214741 | 78 | 191 | 2.6 | 5.2 | 0.00 | 0.00 | 0.00 | 47 | 1036.9 |
| 20260504213822 | 78 | 202 | 2.6 | 3.5 | 0.00 | 0.00 | 0.00 | 46 | 1037.1 |
| 20260504212825 | 78 | 190 | 1.7 | 4.3 | 0.00 | 0.00 | 0.00 | 48 | 1037.2 |
| 20260504211823 | 78 | 205 | 1.7 | 3.5 | 0.00 | 0.00 | 0.00 | 47 | 1037.3 |
| 20260504205921 | 78 | 225 | 0.0 | 0.9 | 0.00 | 0.00 | 0.00 | 49 | 1037.7 |
| 20260504204923 | 78 | 180 | 2.6 | 3.5 | 0.00 | 0.00 | 0.00 | 47 | 1037.8 |
| 20260504203924 | 78 | 201 | 3.5 | 7.0 | 0.00 | 0.00 | 0.00 | 47 | 1038.1 |
| 20260504203822 | 78 | 202 | 1.7 | 3.5 | 0.00 | 0.00 | 0.00 | 46 | 1038.2 |
| 20260504202922 | 78 | 184 | 3.5 | 6.1 | 0.00 | 0.00 | 0.00 | 46 | 1038.4 |
| 20260504201938 | 78 | 177 | 2.6 | 3.5 | 0.00 | 0.00 | 0.00 | 47 | 1038.5 |
| 20260504201021 | 78 | 163 | 0.9 | 2.6 | 0.00 | 0.00 | 0.00 | 45 | 1038.8 |
| 20260504200024 | 78 | 202 | 2.6 | 3.5 | 0.00 | 0.00 | 0.00 | 46 | 1038.9 |
| 20260504195038 | 79 | 198 | 1.7 | 3.5 | 0.00 | 0.00 | 0.00 | 46 | 1039.1 |
| 20260504194122 | 78 | 202 | 1.7 | 2.6 | 0.00 | 0.00 | 0.00 | 44 | 1039.4 |
| 20260504193221 | 79 | 209 | 2.6 | 4.3 | 0.00 | 0.00 | 0.00 | 44 | 1039.4 |
| 20260504191237 | 78 | 169 | 4.3 | 9.6 | 0.00 | 0.00 | 0.00 | 46 | 1039.8 |
| 20260504190224 | 77 | 225 | 1.7 | 2.6 | 0.00 | 0.00 | 0.00 | 44 | 1039.9 |
| 20260504185225 | 77 | 207 | 1.7 | 3.5 | 0.00 | 0.00 | 0.00 | 46 | 1039.9 |
| 20260504184321 | 77 | 186 | 1.7 | 2.6 | 0.00 | 0.00 | 0.00 | 47 | 1040.3 |
| 20260504183339 | 77 | 202 | 1.7 | 2.6 | 0.00 | 0.00 | 0.00 | 47 | 1040.4 |
| 20260504183225 | 77 | 184 | 3.5 | 4.3 | 0.00 | 0.00 | 0.00 | 47 | 1040.4 |
| 20260504181324 | 76 | 157 | 3.5 | 5.2 | 0.00 | 0.00 | 0.00 | 48 | 1040.7 |
| 20260504180322 | 76 | 200 | 3.5 | 5.2 | 0.00 | 0.00 | 0.00 | 48 | 1040.9 |
| 20260504175322 | 76 | 216 | 1.7 | 3.5 | 0.00 | 0.00 | 0.00 | 48 | 1041.2 |
| 20260504175222 | 76 | 220 | 2.6 | 3.5 | 0.00 | 0.00 | 0.00 | 48 | 1041.4 |
| 20260504174238 | 76 | 184 | 3.5 | 5.2 | 0.00 | 0.00 | 0.00 | 48 | 1041.1 |
| 20260504173324 | 76 | 195 | 1.7 | 3.5 | 0.00 | 0.00 | 0.00 | 49 | 1041.4 |
| 20260504171423 | 75 | 210 | 2.6 | 3.5 | 0.00 | 0.00 | 0.00 | 49 | 1041.6 |
| 20260504170425 | 75 | 202 | 1.7 | 3.5 | 0.00 | 0.00 | 0.00 | 50 | 1041.6 |
| 20260504140822 | 66 | 225 | 0.9 | 2.6 | 0.00 | 0.00 | 0.00 | 68 | 1042.7 |